Location: Argonnex
(45.9500°N, 6.1333°E)
Time: 09:29:24
(UTC+00:00)

Cosmos 2266 Rocket - Pass Details

Date: 30 September 2023
Orbit: 933 x 1008 km, 82.9° (Epoch: 10 December)

Event Time Altitude Azimuth Distance (km) Brightness Sun altitude
Exits shadow 02:16:52 53° 115° (ESE) 1,209 4.5 -32.9°
Maximum altitude 02:17:30 55° 92° (E) 1,182 4.5 -32.8°
Drops below altitude 10° 02:23:44 10° 16° (NNE) 2,789 6.9 -31.9°
Sets 02:26:20 0° 13° (NNE) 3,748 7.7 -31.5°
